RYR33DX EDDH-EDDG

Flight info

Callsign RYR33DX
Flight time 0h 37m
Altitude 20000
Route HABFU1G/33 HABFU Y348 MAWEQ Z718 OSN
Aircraft B739/M-SDE2E3FGHIRWXY/LB1

Departure

Time 2026-05-05 16:09
Airport Hamburg Helmut Schmidt Airport (EDDH)

Arrival

Time 2026-05-05 16:47
Airport Münster Osnabrück Airport (EDDG)
Time Latitude Longitude Altitude Speed Heading
2026-05-05 15:45 53.63075 10.00359 47 ft 0 kts 96°
2026-05-05 15:59 53.63076 10.00345 47 ft 1 kts 96°
2026-05-05 16:00 53.63077 10.00330 48 ft 1 kts 96°
2026-05-05 16:00 53.63078 10.00313 48 ft 2 kts 96°
2026-05-05 16:00 53.63079 10.00292 48 ft 1 kts 97°
2026-05-05 16:00 53.63083 10.00272 46 ft 2 kts 138°
2026-05-05 16:01 53.63093 10.00263 45 ft 0 kts 176°
2026-05-05 16:01 53.63092 10.00263 47 ft 0 kts 176°
2026-05-05 16:05 53.63040 10.00234 46 ft 13 kts 210°
2026-05-05 16:05 53.62956 10.00145 44 ft 15 kts 212°
2026-05-05 16:05 53.62880 10.00058 42 ft 12 kts 219°
2026-05-05 16:06 53.62851 9.99983 44 ft 0 kts 242°
2026-05-05 16:07 53.62813 9.99861 45 ft 23 kts 243°
2026-05-05 16:07 53.62859 9.99746 46 ft 13 kts 339°
2026-05-05 16:07 53.62866 9.99741 46 ft 0 kts 336°
2026-05-05 16:09 53.62881 9.99730 46 ft 21 kts 336°
2026-05-05 16:09 53.63315 9.99357 47 ft 116 kts 333°
2026-05-05 16:09 53.64261 9.98546 172 ft 180 kts 334°
2026-05-05 16:09 53.65445 9.97578 1061 ft 190 kts 338°
2026-05-05 16:10 53.66581 9.96640 2431 ft 181 kts 335°
2026-05-05 16:10 53.67773 9.95593 3191 ft 204 kts 334°
2026-05-05 16:10 53.69062 9.94450 4188 ft 211 kts 333°
2026-05-05 16:10 53.70342 9.93200 4725 ft 216 kts 320°
2026-05-05 16:11 53.71190 9.91156 4988 ft 220 kts 289°
2026-05-05 16:11 53.70264 9.83018 4998 ft 244 kts 252°
2026-05-05 16:12 53.69705 9.80322 4995 ft 243 kts 252°
2026-05-05 16:12 53.68612 9.74916 5152 ft 247 kts 252°
2026-05-05 16:13 53.67005 9.66784 7485 ft 245 kts 252°
2026-05-05 16:13 53.66465 9.64052 8215 ft 246 kts 252°
2026-05-05 16:13 53.65921 9.61305 8932 ft 249 kts 252°
2026-05-05 16:14 53.63931 9.56646 10293 ft 255 kts 214°
2026-05-05 16:14 53.60763 9.53716 11422 ft 270 kts 210°
2026-05-05 16:15 53.57127 9.50450 11813 ft 321 kts 210°
2026-05-05 16:15 53.52922 9.46638 12348 ft 360 kts 210°
2026-05-05 16:16 53.48444 9.42562 13748 ft 370 kts 210°
2026-05-05 16:16 53.43912 9.38438 15097 ft 375 kts 210°
2026-05-05 16:17 53.39251 9.34207 16406 ft 382 kts 210°
2026-05-05 16:17 53.36909 9.32086 17048 ft 385 kts 210°
2026-05-05 16:18 53.32156 9.27787 18270 ft 392 kts 210°
2026-05-05 16:18 53.29776 9.25638 18822 ft 394 kts 210°
2026-05-05 16:18 53.24910 9.21252 19831 ft 402 kts 210°
2026-05-05 16:19 53.22433 9.19024 19893 ft 410 kts 210°
2026-05-05 16:19 53.19887 9.16734 19904 ft 418 kts 210°
2026-05-05 16:19 53.14739 9.12121 19897 ft 417 kts 210°
2026-05-05 16:20 53.09309 9.09066 19911 ft 420 kts 183°
2026-05-05 16:20 53.03674 9.11645 19908 ft 433 kts 149°
2026-05-05 16:21 52.99670 9.19149 19908 ft 442 kts 126°
2026-05-05 16:22 52.91902 9.25053 19897 ft 423 kts 191°
2026-05-05 16:22 52.86788 9.20679 19893 ft 417 kts 220°
2026-05-05 16:23 52.82545 9.14121 19893 ft 417 kts 223°
2026-05-05 16:23 52.80401 9.10876 19886 ft 418 kts 223°
2026-05-05 16:23 52.76073 9.04470 19887 ft 418 kts 222°
2026-05-05 16:24 52.73932 9.01316 19886 ft 418 kts 222°
2026-05-05 16:24 52.71730 8.98074 19877 ft 419 kts 222°
2026-05-05 16:24 52.67135 8.92327 19877 ft 418 kts 209°
2026-05-05 16:25 52.64553 8.90121 19886 ft 418 kts 208°
2026-05-05 16:25 52.59378 8.85749 19874 ft 418 kts 208°
2026-05-05 16:25 52.56803 8.83554 19879 ft 418 kts 208°
2026-05-05 16:26 52.51644 8.79127 19869 ft 418 kts 208°
2026-05-05 16:26 52.46488 8.74694 19833 ft 417 kts 208°
2026-05-05 16:27 52.43978 8.72541 19544 ft 398 kts 208°
2026-05-05 16:27 52.41566 8.70474 19292 ft 385 kts 208°
2026-05-05 16:27 52.39999 8.69132 19132 ft 383 kts 208°
2026-05-05 16:27 52.37639 8.67113 18838 ft 381 kts 208°
2026-05-05 16:28 52.35325 8.65136 18474 ft 368 kts 208°
2026-05-05 16:28 52.33094 8.63234 18036 ft 357 kts 208°
2026-05-05 16:28 52.30918 8.61380 17494 ft 350 kts 208°
2026-05-05 16:28 52.28843 8.59354 16951 ft 347 kts 219°
2026-05-05 16:29 52.27163 8.56537 16460 ft 345 kts 233°
2026-05-05 16:29 52.25960 8.53168 15943 ft 344 kts 246°
2026-05-05 16:29 52.25075 8.49543 15453 ft 341 kts 248°
2026-05-05 16:29 52.24235 8.45979 14954 ft 333 kts 248°
2026-05-05 16:30 52.23409 8.42500 14456 ft 323 kts 248°
2026-05-05 16:30 52.22595 8.39131 13975 ft 316 kts 248°
2026-05-05 16:30 52.21787 8.35837 13480 ft 310 kts 248°
2026-05-05 16:30 52.20990 8.32605 12949 ft 305 kts 248°
2026-05-05 16:31 52.20207 8.29428 12424 ft 299 kts 249°
2026-05-05 16:31 52.19626 8.26213 11998 ft 291 kts 256°
2026-05-05 16:31 52.19196 8.23070 11853 ft 278 kts 257°
2026-05-05 16:31 52.18792 8.20045 11674 ft 268 kts 257°
2026-05-05 16:32 52.18398 8.17103 11321 ft 265 kts 257°
2026-05-05 16:32 52.18010 8.14237 11003 ft 261 kts 257°
2026-05-05 16:32 52.17620 8.11372 10679 ft 257 kts 257°
2026-05-05 16:32 52.17232 8.08540 10362 ft 255 kts 256°
2026-05-05 16:33 52.16845 8.05733 10059 ft 255 kts 256°
2026-05-05 16:33 52.16454 8.02900 9755 ft 259 kts 256°
2026-05-05 16:33 52.16054 8.00020 9415 ft 261 kts 256°
2026-05-05 16:33 52.15653 7.97142 9088 ft 261 kts 256°
2026-05-05 16:34 52.15252 7.94265 8746 ft 260 kts 256°
2026-05-05 16:34 52.14852 7.91395 8403 ft 259 kts 256°
2026-05-05 16:34 52.14452 7.88539 8065 ft 258 kts 256°
2026-05-05 16:34 52.14053 7.85695 7752 ft 258 kts 256°
2026-05-05 16:35 52.13656 7.82869 7411 ft 253 kts 256°
2026-05-05 16:35 52.13269 7.80121 7067 ft 246 kts 256°
2026-05-05 16:35 52.12890 7.77437 6747 ft 240 kts 256°
2026-05-05 16:35 52.12520 7.74821 6429 ft 235 kts 256°
2026-05-05 16:36 52.12156 7.72248 6095 ft 231 kts 256°
2026-05-05 16:36 52.11938 7.69674 5732 ft 231 kts 277°
2026-05-05 16:36 52.12274 7.67140 5419 ft 229 kts 270°
2026-05-05 16:36 52.11875 7.64676 5110 ft 226 kts 243°
2026-05-05 16:37 52.11240 7.62328 4791 ft 229 kts 248°
2026-05-05 16:37 52.10690 7.59880 4463 ft 232 kts 250°
2026-05-05 16:37 52.10195 7.57360 4146 ft 234 kts 253°
2026-05-05 16:37 52.09748 7.54815 3806 ft 234 kts 255°
2026-05-05 16:38 52.09340 7.52264 3537 ft 231 kts 256°
2026-05-05 16:38 52.08958 7.49738 3279 ft 229 kts 256°
2026-05-05 16:38 52.08588 7.47227 3055 ft 225 kts 257°
2026-05-05 16:38 52.08240 7.44842 2999 ft 208 kts 257°
2026-05-05 16:39 52.07925 7.42673 2973 ft 194 kts 257°
2026-05-05 16:39 52.07769 7.40538 2970 ft 191 kts 279°
2026-05-05 16:39 52.08205 7.38520 2989 ft 190 kts 303°
2026-05-05 16:39 52.09095 7.36997 2970 ft 182 kts 328°
2026-05-05 16:40 52.10219 7.36284 2965 ft 169 kts 353°
2026-05-05 16:40 52.11365 7.36372 2961 ft 164 kts 16°
2026-05-05 16:40 52.12384 7.37166 3001 ft 165 kts 37°
2026-05-05 16:40 52.13207 7.38478 2985 ft 167 kts 54°
2026-05-05 16:41 52.13460 7.40248 2973 ft 166 kts 106°
2026-05-05 16:41 52.12688 7.41550 2981 ft 165 kts 160°
2026-05-05 16:41 52.11647 7.42143 2969 ft 153 kts 156°
2026-05-05 16:41 52.10709 7.42849 2962 ft 145 kts 153°
2026-05-05 16:42 52.09779 7.43505 2969 ft 147 kts 161°
2026-05-05 16:42 52.08908 7.44339 2857 ft 145 kts 121°
2026-05-05 16:42 52.08834 7.45896 2820 ft 146 kts 71°
2026-05-05 16:42 52.09132 7.47500 2604 ft 148 kts 78°
2026-05-05 16:43 52.09396 7.49085 2401 ft 143 kts 72°
2026-05-05 16:43 52.09709 7.50595 2214 ft 139 kts 71°
2026-05-05 16:43 52.10023 7.52092 2030 ft 140 kts 71°
2026-05-05 16:43 52.10335 7.53583 1848 ft 141 kts 71°
2026-05-05 16:44 52.10656 7.55114 1649 ft 140 kts 71°
2026-05-05 16:44 52.10967 7.56600 1441 ft 137 kts 71°
2026-05-05 16:44 52.11275 7.58068 1270 ft 137 kts 70°
2026-05-05 16:44 52.11584 7.59544 1094 ft 138 kts 71°
2026-05-05 16:45 52.11892 7.61011 916 ft 135 kts 70°
2026-05-05 16:45 52.12189 7.62429 756 ft 134 kts 69°
2026-05-05 16:45 52.12494 7.63875 609 ft 137 kts 69°
2026-05-05 16:45 52.12805 7.65356 404 ft 138 kts 70°
2026-05-05 16:46 52.13112 7.66804 221 ft 134 kts 71°
2026-05-05 16:46 52.13383 7.68131 166 ft 104 kts 71°
2026-05-05 16:46 52.13565 7.68946 166 ft 69 kts 70°
2026-05-05 16:46 52.13708 7.69633 168 ft 60 kts 72°
2026-05-05 16:47 52.13722 7.70031 167 ft 20 kts 163°
2026-05-05 16:47 52.13605 7.69968 167 ft 19 kts 244°
2026-05-05 16:47 52.13560 7.69769 167 ft 18 kts 250°
2026-05-05 16:47 52.13521 7.69573 167 ft 18 kts 251°
2026-05-05 16:48 52.13482 7.69386 167 ft 17 kts 251°
2026-05-05 16:48 52.13419 7.69242 166 ft 17 kts 182°
2026-05-05 16:48 52.13310 7.69289 166 ft 16 kts 161°
2026-05-05 16:48 52.13205 7.69325 166 ft 15 kts 191°
2026-05-05 16:49 52.13165 7.69314 166 ft 0 kts 190°